CAPE
4 2 2 3 2 2 3 2 2 3 4 3 2 2 1 1 2 1 1 2 3 2 3 1 1 0 0 0 0 1 0 0 0 0 0 0 0 0 0 0 0 0 188 0 0 0 152 180 200 290 171 130 139 400 451 1090 982 1386 1203 999 649 667 930 505 526 652 475 481 861 656 557 670 630 436 439 534 455 430 285 305 412 408 310 373 461 328 281 327
2 3 3 3 2 3 2 2 2 2 2 3 3 4 3 3 4 4 2 2 2 2 0 0 0 0 0 0 1 1 0 0 0 0 0 0 0 0 0 0 0 243 812 0 0 0 204 218 261 306 44 309 90 559 350 1400 770 1544 1202 990 274 724 1810 1672 1797 1312 472 396 663 613 544 465 555 670 535 462 459 311 221 327 462 500 498 456 427 316 466 629
3 4 2 4 3 4 3 2 2 2 1 1 2 1 2 2 1 1 2 0 0 1 0 1 1 0 0 0 3 0 0 0 0 0 0 0 0 0 0 1 16 226 2 0 0 0 183 218 269 238 111 243 124 698 222 1056 981 1352 1183 705 1032 1434 1575 1836 2275 1845 2294 673 494 703 585 430 503 406 378 380 251 252 173 261 375 340 312 574 616 578 622 799
2 3 4 3 4 2 2 1 1 1 1 1 1 1 1 1 0 0 0 0 0 0 3 1 0 0 0 0 0 0 0 0 0 0 4 145 0 0 12 28 16 167 3 0 0 0 162 173 272 143 185 263 316 149 264 655 1244 840 1474 1223 1213 978 1098 1476 1822 2339 1434 700 636 683 592 699 331 386 428 304 207 293 194 129 225 262 390 580 683 629 695 714
2 2 3 3 1 2 2 2 2 3 2 2 2 2 3 2 2 2 1 0 0 0 1 1 0 0 0 1 0 0 0 0 0 0 21 25 0 0 205 19 56 0 0 0 0 0 62 162 238 104 132 359 45 103 59 295 481 972 1138 1638 1595 731 1346 1604 2127 1912 1318 715 548 527 624 676 517 340 436 242 93 80 157 140 209 290 399 600 658 538 621 617
3 3 2 1 2 3 3 4 3 2 2 2 1 2 2 2 2 2 2 2 0 0 0 0 1 0 0 1 0 0 0 0 0 11 436 0 0 20 27 28 91 0 0 0 0 0 0 3 92 165 179 101 141 76 184 129 534 1334 1304 1311 1785 1420 1556 1931 2268 2097 1191 787 560 501 650 672 494 500 373 200 228 358 210 112 248 372 449 497 545 531 542 508
2 2 1 2 2 3 4 2 3 2 2 2 2 1 1 1 3 2 1 1 2 0 0 0 0 0 0 0 0 0 0 0 0 256 4 1 32 71 86 132 0 0 0 0 0 0 0 7 84 110 94 15 9 0 9 77 263 212 1008 1304 1891 2035 1735 1965 2162 1914 1062 706 650 630 693 602 503 565 453 260 391 550 286 188 401 423 483 471 482 562 525 606
2 2 2 2 3 2 2 3 2 2 2 2 2 2 1 1 1 2 2 1 1 1 1 0 0 0 0 0 0 0 0 0 0 208 16 51 51 28 0 0 0 0 0 0 0 0 0 2 70 22 7 53 8 0 191 179 541 1080 1130 1293 1552 1642 1864 1350 1477 1380 952 869 961 928 668 686 498 706 391 449 385 289 173 317 496 519 532 559 471 482 568 704
2 1 2 2 1 1 1 1 2 2 2 2 1 2 1 1 1 1 2 2 2 1 0 1 0 0 0 0 0 0 0 0 0 0 0 0 0 0 0 0 0 0 0 0 0 0 0 0 18 6 26 0 0 0 596 782 1186 773 1236 1264 1483 1475 1397 1183 1376 1333 1132 1071 740 516 906 923 966 346 660 488 341 346 242 412 596 580 529 534 426 426 604 740
2 3 1 1 1 2 2 2 3 2 2 1 1 1 2 1 1 1 3 2 2 2 0 0 0 0 0 0 0 0 0 0 0 0 0 0 0 0 0 0 0 0 0 0 0 0 0 0 1 0 0 0 60 883 914 771 1466 933 1340 1272 1426 1405 1246 1134 1469 930 1457 1394 738 857 1079 763 426 343 422 582 329 250 270 427 581 501 498 432 392 466 608 693
2 2 1 1 1 2 2 1 2 2 2 2 1 2 2 2 1 2 2 2 1 1 0 0 0 0 0 0 0 0 0 0 0 0 0 0 0 0 0 0 0 0 0 0 0 0 0 0 0 0 0 52 433 1508 1232 1418 1107 1449 1109 702 875 1445 1351 858 529 377 1468 654 1860 780 802 535 460 780 83 622 361 231 292 403 458 354 450 463 400 481 554 712
1 1 1 2 2 1 2 1 1 1 1 1 1 2 2 2 1 2 2 2 1 0 0 0 0 0 0 0 0 0 0 0 0 0 0 0 0 0 0 0 0 0 0 0 0 0 0 0 0 0 0 0 71 529 1192 1122 1356 1390 1184 754 927 696 523 321 447 516 1247 511 1344 688 658 624 414 253 662 496 381 330 294 262 394 355 355 464 373 456 584 677
2 1 2 3 2 1 1 1 0 0 1 1 1 2 2 2 2 1 2 1 0 0 0 0 0 0 0 0 0 0 0 0 0 0 0 0 0 0 0 0 0 0 0 0 0 0 0 0 0 0 0 0 183 975 1290 1164 1506 1473 1486 1260 1086 518 655 496 619 695 1126 746 1003 1514 261 597 520 965 536 548 446 398 342 284 257 320 297 297 361 464 611 584
1 2 2 2 1 1 1 0 1 1 2 1 2 2 1 2 2 2 1 0 0 0 0 0 0 0 0 0 0 0 0 0 0 0 0 0 0 0 0 0 0 0 0 0 0 0 0 0 0 0 0 217 1384 700 1150 1097 1201 1357 1384 1077 1230 611 532 788 836 941 802 636 917 1461 424 309 776 899 701 632 452 402 364 236 178 318 258 265 338 431 554 555
1 2 2 2 1 1 1 0 1 1 1 2 1 1 1 0 2 0 0 0 0 0 0 0 0 0 0 0 0 0 0 0 0 0 0 0 0 0 0 0 0 0 0 0 0 0 0 0 0 0 0 460 958 1161 1274 1373 1285 1440 447 482 1014 846 393 642 879 1264 800 524 1042 800 581 346 558 806 826 766 614 439 378 262 193 192 275 206 260 413 411 448
1 1 3 1 1 1 1 1 1 2 1 1 0 0 0 0 0 0 0 0 0 0 0 0 0 0 0 0 0 0 0 0 0 0 0 0 0 0 0 0 0 0 0 0 0 0 0 0 0 0 28 456 1316 1373 1251 1304 1234 1100 664 706 678 240 323 464 851 1380 1138 931 1337 908 619 699 752 787 824 767 825 557 457 265 252 165 219 156 191 302 363 414
1 2 2 2 2 1 1 0 1 1 1 0 0 0 0 0 0 0 0 0 0 0 0 0 0 0 0 0 0 0 0 0 0 0 0 0 0 0 0 0 0 0 0 0 0 0 0 0 0 0 20 593 1248 1272 961 638 608 771 550 983 708 306 328 366 904 1300 1183 1108 489 679 513 620 544 556 891 807 874 740 514 389 270 242 165 158 143 195 344 458
2 3 2 1 1 2 0 0 1 0 0 0 0 0 0 0 0 0 0 0 0 0 0 0 0 0 0 0 0 0 0 0 0 0 0 0 0 0 0 0 0 0 0 0 0 0 0 0 0 28 299 184 965 1108 46 121 161 180 832 688 786 580 197 553 471 562 1125 1155 895 707 714 669 465 484 752 829 911 795 509 371 247 272 174 144 105 168 323 431
2 2 1 2 1 0 0 0 0 0 0 0 0 0 0 0 0 0 0 0 0 0 0 0 0 0 0 0 0 0 0 0 0 0 0 0 0 0 0 0 0 0 0 0 0 0 0 0 0 60 314 209 621 953 473 302 354 576 780 660 705 541 265 952 937 1143 1285 995 1174 737 659 794 496 442 634 734 914 756 517 462 409 284 238 141 137 153 247 409
2 2 2 2 1 1 0 1 0 0 0 0 0 0 0 0 4 0 0 0 0 0 0 0 0 0 0 0 0 0 0 0 0 0 0 0 0 0 0 0 0 0 0 0 0 0 0 1 12 17 54 81 574 972 794 593 795 529 618 737 474 203 700 1103 1144 1257 912 612 1070 785 948 815 486 496 618 700 814 736 549 526 461 317 292 114 92 124 208 340
1 3 1 2 1 1 0 0 0 1 0 0 0 0 0 0 0 0 0 0 0 0 0 0 0 0 0 0 0 0 0 0 0 0 0 0 0 0 0 0 0 0 0 0 0 0 0 0 2 18 314 435 954 648 660 912 804 753 676 602 413 494 508 779 1116 1002 1364 836 568 978 834 554 532 358 409 544 635 661 623 624 444 284 321 129 87 142 197 289
2 1 3 1 1 0 0 0 0 0 0 0 0 0 0 0 0 0 0 0 0 0 0 0 0 0 0 0 0 0 0 0 0 0 0 0 0 0 0 0 0 0 0 0 0 0 0 0 0 2 80 158 626 742 502 715 855 602 218 397 543 554 636 809 507 760 819 501 521 469 420 744 774 451 318 454 534 546 539 618 474 328 258 162 75 154 181 208
1 3 0 2 0 0 0 0 0 0 0 0 0 0 0 0 0 0 0 0 0 0 0 0 0 0 0 0 0 0 0 0 0 0 0 0 0 0 0 0 0 0 0 0 0 0 0 0 0 0 0 110 308 526 814 638 424 615 469 65 20 377 601 519 628 1217 792 677 795 788 560 518 616 685 457 376 507 605 588 644 579 375 266 160 52 120 162 185
1 1 3 1 0 0 0 0 0 0 0 0 0 0 0 0 0 0 0 0 0 0 0 0 0 0 0 0 0 0 0 0 0 0 0 0 0 0 0 0 0 0 0 0 0 0 0 0 0 0 0 1 59 246 608 579 610 463 363 421 222 278 197 277 639 882 1059 841 993 555 586 32 798 905 568 398 456 617 650 547 576 551 419 214 26 63 142 178
2 1 1 2 0 0 0 0 0 0 0 0 0 0 0 0 0 0 0 0 0 0 0 0 0 0 0 0 0 0 0 0 0 0 0 0 0 0 0 0 0 0 0 0 0 0 0 0 0 0 0 0 0 14 32 365 549 73 139 133 97 167 238 289 848 884 394 155 625 380 180 35 303 618 567 583 568 611 650 578 524 624 570 333 143 53 84 134
1 2 2 1 1 0 0 0 0 0 0 0 0 0 0 0 0 0 0 0 0 0 0 0 0 0 0 0 0 0 0 0 0 0 0 0 0 0 0 0 0 0 0 0 0 0 0 0 0 0 0 0 0 0 0 30 31 147 11 0 0 18 213 453 335 406 355 437 570 366 167 74 548 690 636 611 737 940 971 802 640 570 569 390 348 155 84 96
1 1 2 2 2 0 0 0 0 0 0 0 0 0 0 0 0 0 0 0 0 0 0 0 0 0 0 0 0 0 0 0 0 0 0 0 0 0 0 0 0 0 0 0 0 0 0 0 0 0 0 0 0 0 1 44 20 225 75 0 24 24 195 428 603 615 394 460 778 986 69 312 225 390 857 588 704 863 746 642 606 500 515 324 385 231 145 85
2 1 1 2 0 0 0 0 0 0 0 0 0 0 0 0 0 0 0 0 0 0 0 0 0 0 0 0 0 0 0 0 0 0 0 0 0 0 0 0 0 0 0 0 0 0 0 0 0 0 0 0 0 0 0 8 6 28 18 8 199 303 512 561 592 568 552 621 409 470 804 555 215 440 502 604 640 571 562 520 441 393 495 492 386 234 106 101
1 1 1 1 0 0 0 0 0 0 0 0 0 0 0 0 0 0 0 0 0 0 0 0 0 0 0 0 0 0 0 0 0 0 0 0 0 0 0 0 0 0 0 0 0 0 0 0 0 0 0 0 0 0 0 0 10 40 12 20 113 300 490 713 782 616 810 595 728 780 745 560 50 766 548 580 543 732 716 599 436 391 429 512 400 240 99 58
1 2 0 2 0 0 0 0 0 0 0 0 0 0 0 0 0 0 0 0 0 0 0 0 0 0 0 0 0 0 0 0 0 0 0 0 0 0 0 0 0 0 0 0 0 0 0 0 0 0 0 0 0 0 0 0 23 86 18 35 188 483 844 563 869 1007 830 712 660 781 744 387 226 366 482 710 583 796 674 599 529 496 349 444 577 313 144 68
1 0 1 1 0 0 0 0 0 0 0 0 0 0 0 0 0 0 0 0 0 0 0 0 0 0 0 0 0 0 0 0 0 0 0 0 0 0 0 0 0 0 0 0 0 0 0 0 0 0 0 0 0 0 0 172 238 4 19 108 313 648 428 638 936 645 690 497 824 701 758 490 374 34 809 520 950 609 409 654 619 603 358 326 578 444 197 113
0 0 0 0 0 0 0 0 0 0 0 0 0 0 0 0 0 0 0 0 0 0 0 0 0 0 0 0 0 0 0 0 0 0 0 0 0 0 0 0 0 0 0 0 0 0 0 0 0 0 0 0 0 0 0 1 133 219 33 238 125 125 324 714 584 206 138 352 502 833 664 624 309 460 549 461 465 485 477 519 643 778 631 218 340 569 347 157
0 0 0 0 0 0 0 0 0 0 0 0 0 0 0 0 0 0 0 0 0 0 0 0 0 0 0 0 0 0 0 0 0 0 0 0 0 0 0 0 0 0 3 0 0 0 0 0 0 0 0 0 0 0 55 128 272 56 82 46 191 37 435 146 332 482 309 214 587 755 728 704 479 863 786 927 1069 906 1025 998 778 628 819 630 381 440 546 276
0 0 0 0 0 0 0 0 0 0 0 0 0 0 0 0 0 0 0 0 0 0 0 0 0 0 0 0 0 0 0 0 0 0 0 0 0 0 0 0 0 0 0 0 0 0 2 0 0 0 0 0 0 0 40 72 327 127 227 62 33 1 81 2 31 145 64 392 688 790 534 404 476 1199 955 1194 1216 1270 1276 1020 914 771 707 734 491 361 656 442
0 0 0 0 0 0 0 0 0 0 0 0 0 0 0 0 0 0 0 0 0 0 0 0 0 0 0 0 0 0 0 0 0 0 0 0 0 0 0 0 0 0 0 0 0 0 0 0 0 0 0 0 0 0 0 0 97 93 116 74 2 20 34 27 21 53 172 659 864 698 543 627 748 1254 915 1175 914 1387 1357 1277 705 587 597 425 394 557 756 546
0 0 0 0 0 0 0 0 0 0 0 0 0 0 0 0 0 0 0 0 0 0 0 0 0 0 0 0 0 0 0 0 0 0 0 0 0 0 0 0 0 0 0 0 0 0 0 0 0 0 0 0 0 0 0 3 110 384 243 103 21 26 8 153 116 106 176 5 602 711 342 281 667 854 540 1022 944 1368 1385 1370 861 487 480 359 379 489 556 725
0 0 0 0 0 0 0 0 0 0 0 0 0 0 0 0 0 0 0 0 0 0 0 0 0 0 0 0 0 0 0 0 0 0 0 0 0 0 0 0 0 0 0 0 0 0 0 0 0 0 0 0 0 138 61 16 51 466 181 248 167 20 6 6 120 87 223 15 604 366 322 334 194 722 800 1043 1081 1386 1326 1332 1525 596 432 447 496 647 784 746
0 0 0 0 0 0 0 0 0 0 0 0 0 0 0 0 0 0 0 0 0 0 0 0 0 0 0 0 0 0 0 0 0 0 0 0 0 0 0 0 0 0 0 0 0 1 0 4 2 0 0 2 9 314 559 348 323 214 3 162 39 81 2 6 133 175 48 91 285 288 254 270 447 788 963 1060 1110 1336 1339 1317 1428 988 592 722 644 656 916 1118
0 0 0 0 0 0 0 0 0 0 0 0 0 0 0 0 0 0 0 0 0 0 0 0 0 0 0 0 0 0 0 0 0 0 2 0 2 0 0 0 0 0 0 0 0 0 5 38 42 1 0 38 20 320 713 289 208 198 258 105 7 74 12 327 330 240 107 258 122 126 77 264 847 1113 1079 1017 1084 1374 1201 1296 1228 1426 1025 756 789 725 831 1064
0 0 0 0 0 0 0 0 0 0 0 0 0 0 0 0 0 0 0 0 0 0 0 0 0 0 0 0 0 0 0 0 0 2 0 0 0 0 0 0 0 0 0 0 0 0 50 0 286 5 125 79 138 131 472 250 450 210 218 220 119 84 7 26 145 106 12 13 12 77 12 663 1157 1080 1007 1348 1305 1260 1547 1515 1337 1303 1595 766 497 648 1127 1083
0 0 0 0 0 0 0 0 0 0 0 0 0 0 0 0 0 0 0 0 0 0 0 0 0 0 0 0 0 0 0 0 0 0 0 2 0 0 0 0 0 0 0 0 2 13 20 88 92 38 40 147 368 300 312 344 266 233 281 616 218 55 44 21 3 6 9 17 32 98 123 976 1581 911 1151 1336 1331 1591 1569 1322 1702 1445 1097 1398 963 584 1004 1300
0 0 0 0 0 0 0 0 0 0 0 0 0 0 0 0 0 0 0 0 0 0 0 0 0 0 0 0 0 0 0 0 0 0 0 0 0 0 0 0 0 0 0 0 0 18 36 120 7 298 228 48 88 35 197 328 157 440 224 202 166 107 40 85 6 150 19 26 20 93 17 954 1078 1074 1262 1385 1661 1648 1606 1395 1775 1553 1755 1724 1402 791 824 1133
0 0 0 0 0 0 0 0 0 0 0 0 0 0 0 0 0 0 0 0 0 0 0 0 0 0 0 0 0 0 0 0 0 0 0 0 0 0 0 0 0 0 0 0 0 5 764 325 93 30 101 91 177 345 285 428 392 55 460 466 108 123 27 45 28 3 0 19 22 53 37 1020 1246 1088 1508 1531 1630 1710 1609 1648 1773 1872 2022 2073 2156 2166 1811 1339
0 0 0 0 0 0 0 0 0 0 0 0 0 0 0 0 0 0 0 0 0 0 0 0 0 0 0 0 0 0 0 0 0 0 0 0 0 0 0 10 0 0 0 0 0 163 15 472 86 222 118 27 111 165 215 324 183 442 863 886 889 927 478 200 41 2 4 3 9 2 2 770 1446 1394 1541 1905 1719 1757 1843 1468 1592 1835 1840 1827 1791 1777 1724 1833
0 0 0 0 0 0 0 0 0 0 0 0 0 0 0 0 0 0 0 0 0 0 0 0 0 0 0 0 0 0 0 0 0 0 0 0 0 0 0 63 19 36 29 249 529 5 18 333 238 149 153 146 223 133 234 208 204 830 894 998 1121 900 554 344 1 6 1 923 71 3 846 1230 1206 1455 1602 1726 1802 1728 1809 1746 1621 1574 1505 1491 1658 1752 1685 1634
0 0 0 0 0 0 0 0 0 0 0 0 0 0 0 0 0 0 0 0 0 0 0 0 0 0 0 0 0 0 0 0 0 0 0 0 0 0 0 48 437 147 433 503 258 295 471 417 422 823 89 107 110 575 115 351 333 586 671 872 919 778 909 494 134 4 0 356 350 715 1238 1354 1188 1612 1704 1707 1790 1786 1658 1507 1365 1160 1164 1030 1459 1379 1447 1560
0 0 0 13 0 0 0 0 0 0 0 0 0 0 0 0 0 0 0 0 0 0 0 0 0 0 0 0 0 0 0 0 0 0 0 0 0 0 0 32 127 301 888 420 223 322 323 296 672 1061 259 357 401 608 735 719 451 524 814 827 914 857 756 327 105 272 1236 0 26 1433 1694 1328 1272 1542 1574 1741 1712 1651 1457 1280 1152 1066 1201 1280 1313 1390 1336 1364
0 0 0 7 0 0 0 0 0 0 0 0 0 0 0 0 0 0 0 0 0 0 0 0 0 0 0 0 0 0 0 0 0 0 0 0 0 0 0 0 0 227 361 26 59 275 322 361 759 819 352 216 580 597 713 575 534 527 652 778 929 994 1052 775 822 717 1064 269 27 1059 1724 1610 1358 1424 1410 1635 1575 1290 1210 1191 1075 994 1043 1068 1311 1182 1242 1204
0 0 0 0 0 0 0 6 0 10 1 0 0 0 0 0 0 0 0 0 0 0 0 0 0 0 0 0 0 0 0 0 0 0 2 0 0 0 0 0 0 0 0 0 0 511 210 414 708 828 724 946 852 783 644 593 548 494 643 778 785 799 891 1116 1196 1094 816 1495 1281 1302 1614 1497 1511 1637 1499 1255 1124 1149 1066 1026 998 958 1038 1211 1259 1240 1198 1142
0 0 0 0 0 0 0 0 0 0 0 3 0 0 0 0 0 0 0 0 0 0 0 0 0 0 0 0 0 0 0 0 1 0 0 0 0 0 0 0 0 0 0 0 0 262 362 840 870 671 1096 938 793 694 859 625 568 695 735 848 734 855 1021 1145 1261 1260 1148 1256 1468 1376 1495 1475 1382 1303 1316 1199 1226 1045 1011 1073 1012 907 940 988 938 1056 892 892
0 0 0 0 0 0 0 0 0 0 0 0 0 0 0 0 0 0 0 0 0 0 0 0 0 0 0 0 0 0 0 0 0 0 0 0 0 0 0 0 0 0 0 0 0 0 0 369 706 557 507 805 545 677 515 455 482 598 786 804 845 651 843 739 1168 1172 1409 1372 1392 1328 1268 1390 1440 1256 1132 1018 884 865 961 904 928 883 903 970 900 901 860 830
0 0 0 0 0 79 0 0 0 0 0 0 11 5 0 0 0 0 0 0 0 0 0 0 0 0 0 0 0 0 0 0 0 0 0 0 0 0 0 0 0 0 0 0 0 0 0 183 199 125 67 413 499 369 404 322 289 222 454 1044 1022 1131 1016 1298 1576 1618 1587 1314 1312 1218 1494 1553 1563 1212 1088 918 799 764 912 861 767 752 860 840 847 853 811 858
Wind_Speed
nan nan nan nan nan nan nan nan nan nan nan nan nan nan nan nan nan nan nan nan nan nan nan nan nan nan nan nan nan nan nan nan nan nan nan nan nan nan nan nan nan nan 9 nan nan nan 6 6 5 5 4 6 3 8 5 9 10 13 13 14 11 7 12 10 6 2 7 8 5 4 2 4 6 2 4 1 2 4 4 4 3 3 4 6 8 8 4 4
nan nan nan nan nan nan nan nan nan nan nan nan nan nan nan nan nan nan nan nan nan nan nan nan nan nan nan nan nan nan nan nan nan nan nan nan nan nan nan nan nan 11 8 nan nan nan 6 6 6 6 nan 3 nan 4 9 4 9 10 7 13 5 7 5 6 2 2 5 6 4 4 3 2 5 5 2 1 2 5 6 8 8 7 6 7 7 6 4 6
nan nan nan nan nan nan nan nan nan nan nan nan nan nan nan nan nan nan nan nan nan nan nan nan nan nan nan nan nan nan nan nan nan nan nan nan nan nan nan nan nan 10 nan nan nan nan 3 4 6 5 3 2 0 2 7 3 8 2 9 8 2 1 7 4 3 0 5 10 6 3 4 2 5 1 2 2 3 4 6 9 10 8 9 6 5 4 3 7
nan nan nan nan nan nan nan nan nan nan nan nan nan nan nan nan nan nan nan nan nan nan nan nan nan nan nan nan nan nan nan nan nan nan nan 20 nan nan nan nan nan 8 nan nan nan nan 6 6 4 3 2 2 3 3 4 2 7 1 9 2 2 6 9 5 3 1 3 10 9 4 4 3 2 2 1 2 3 1 3 6 7 11 11 8 5 4 3 6
nan nan nan nan nan nan nan nan nan nan nan nan nan nan nan nan nan nan nan nan nan nan nan nan nan nan nan nan nan nan nan nan nan nan nan nan nan nan 17 nan nan nan nan nan nan nan nan 6 4 1 1 2 nan 1 nan 1 3 5 3 1 2 7 7 6 4 1 4 9 10 4 3 4 4 3 3 3 nan nan 3 4 5 9 11 9 6 3 3 6
nan nan nan nan nan nan nan nan nan nan nan nan nan nan nan nan nan nan nan nan nan nan nan nan nan nan nan nan nan nan nan nan nan nan 19 nan nan nan nan nan nan nan nan nan nan nan nan nan nan 3 2 1 5 nan 7 2 0 2 7 3 5 3 5 6 6 4 5 9 10 4 3 7 3 4 4 10 11 9 4 2 6 9 9 7 5 3 4 5
nan nan nan nan nan nan nan nan nan nan nan nan nan nan nan nan nan nan nan nan nan nan nan nan nan nan nan nan nan nan nan nan nan 23 nan nan nan nan nan 19 nan nan nan nan nan nan nan nan nan 5 nan nan nan nan nan nan 1 2 4 6 6 6 7 7 7 4 4 8 10 3 7 5 3 4 5 10 12 5 3 3 7 9 8 6 5 3 2 4
nan nan nan nan nan nan nan nan nan nan nan nan nan nan nan nan nan nan nan nan nan nan nan nan nan nan nan nan nan nan nan nan nan 23 nan nan nan nan nan nan nan nan nan nan nan nan nan nan nan nan nan nan nan nan 9 1 4 1 3 6 6 6 8 9 10 7 9 10 9 7 5 6 4 7 3 11 10 3 4 5 8 10 8 5 3 2 1 2
nan nan nan nan nan nan nan nan nan nan nan nan nan nan nan nan nan nan nan nan nan nan nan nan nan nan nan nan nan nan nan nan nan nan nan nan nan nan nan nan nan nan nan nan nan nan nan nan nan nan nan nan nan nan 7 4 8 4 4 4 4 6 8 12 13 10 11 11 10 7 9 10 9 8 8 9 9 5 4 6 9 10 8 5 2 1 1 2
nan nan nan nan nan nan nan nan nan nan nan nan nan nan nan nan nan nan nan nan nan nan nan nan nan nan nan nan nan nan nan nan nan nan nan nan nan nan nan nan nan nan nan nan nan nan nan nan nan nan nan nan nan 11 12 5 11 3 7 6 4 4 7 14 14 12 14 15 11 8 8 9 9 5 9 8 7 4 3 5 8 10 9 5 2 1 1 2
nan nan nan nan nan nan nan nan nan nan nan nan nan nan nan nan nan nan nan nan nan nan nan nan nan nan nan nan nan nan nan nan nan nan nan nan nan nan nan nan nan nan nan nan nan nan nan nan nan nan nan nan 10 13 8 14 10 9 9 11 9 9 11 13 14 11 13 17 15 9 11 10 10 10 nan 7 5 3 3 4 8 9 7 4 2 1 2 3
nan nan nan nan nan nan nan nan nan nan nan nan nan nan nan nan nan nan nan nan nan nan nan nan nan nan nan nan nan nan nan nan nan nan nan nan nan nan nan nan nan nan nan nan nan nan nan nan nan nan nan nan nan 14 13 12 11 11 9 8 12 11 10 15 17 10 8 17 17 12 13 7 7 8 12 7 5 4 1 3 6 8 7 5 3 1 3 3
nan nan nan nan nan nan nan nan nan nan nan nan nan nan nan nan nan nan nan nan nan nan nan nan nan nan nan nan nan nan nan nan nan nan nan nan nan nan nan nan nan nan nan nan nan nan nan nan nan nan nan nan 15 15 18 11 15 11 7 8 13 11 10 15 15 9 6 11 18 16 6 7 6 10 8 7 5 3 2 1 3 5 7 5 3 1 2 2
nan nan nan nan nan nan nan nan nan nan nan nan nan nan nan nan nan nan nan nan nan nan nan nan nan nan nan nan nan nan nan nan nan nan nan nan nan nan nan nan nan nan nan nan nan nan nan nan nan nan nan 13 17 19 14 16 13 11 15 4 8 9 7 12 12 11 11 3 12 17 13 11 6 10 10 6 3 3 1 1 2 4 6 5 4 1 2 2
nan nan nan nan nan nan nan nan nan nan nan nan nan nan nan nan nan nan nan nan nan nan nan nan nan nan nan nan nan nan nan nan nan nan nan nan nan nan nan nan nan nan nan nan nan nan nan nan nan nan nan 19 17 13 15 15 14 16 17 6 6 9 9 9 10 7 10 4 8 14 17 14 9 12 10 7 4 4 2 1 1 3 3 6 3 1 1 1
nan nan nan nan nan nan nan nan nan nan nan nan nan nan nan nan nan nan nan nan nan nan nan nan nan nan nan nan nan nan nan nan nan nan nan nan nan nan nan nan nan nan nan nan nan nan nan nan nan nan nan 16 13 14 16 15 16 15 9 10 9 15 8 9 7 3 5 7 4 11 18 17 16 12 10 8 5 5 4 2 0 2 4 5 4 2 1 1
nan nan nan nan nan nan nan nan nan nan nan nan nan nan nan nan nan nan nan nan nan nan nan nan nan nan nan nan nan nan nan nan nan nan nan nan nan nan nan nan nan nan nan nan nan nan nan nan nan nan nan 14 15 17 14 13 19 18 17 14 11 13 12 6 8 1 6 4 7 11 19 20 19 11 11 9 7 5 5 3 0 1 1 3 4 4 1 1
nan nan nan nan nan nan nan nan nan nan nan nan nan nan nan nan nan nan nan nan nan nan nan nan nan nan nan nan nan nan nan nan nan nan nan nan nan nan nan nan nan nan nan nan nan nan nan nan nan nan 16 14 16 16 nan 13 17 17 18 15 12 13 13 13 7 7 7 4 6 11 21 19 13 12 10 9 7 6 6 4 2 1 1 2 4 4 3 1
nan nan nan nan nan nan nan nan nan nan nan nan nan nan nan nan nan nan nan nan nan nan nan nan nan nan nan nan nan nan nan nan nan nan nan nan nan nan nan nan nan nan nan nan nan nan nan nan nan nan 13 16 18 18 19 16 12 9 14 18 15 15 14 8 10 11 6 8 8 10 18 18 11 11 11 9 7 6 6 5 4 2 2 1 3 4 4 1
nan nan nan nan nan nan nan nan nan nan nan nan nan nan nan nan nan nan nan nan nan nan nan nan nan nan nan nan nan nan nan nan nan nan nan nan nan nan nan nan nan nan nan nan nan nan nan nan nan nan nan nan 22 24 22 23 21 17 16 15 20 22 11 9 11 8 9 11 8 13 19 18 13 13 11 8 7 6 6 4 4 4 3 2 nan 4 4 3
nan nan nan nan nan nan nan nan nan nan nan nan nan nan nan nan nan nan nan nan nan nan nan nan nan nan nan nan nan nan nan nan nan nan nan nan nan nan nan nan nan nan nan nan nan nan nan nan nan nan 27 23 24 21 19 18 19 19 17 16 17 14 12 11 13 10 7 8 13 15 17 18 15 14 12 8 6 5 5 5 4 4 4 4 nan 2 4 4
nan nan nan nan nan nan nan nan nan nan nan nan nan nan nan nan nan nan nan nan nan nan nan nan nan nan nan nan nan nan nan nan nan nan nan nan nan nan nan nan nan nan nan nan nan nan nan nan nan nan nan 22 19 17 16 18 17 17 18 16 17 20 19 14 15 9 7 12 12 13 17 19 13 12 11 8 7 7 7 7 7 7 5 6 nan 1 3 5
nan nan nan nan nan nan nan nan nan nan nan nan nan nan nan nan nan nan nan nan nan nan nan nan nan nan nan nan nan nan nan nan nan nan nan nan nan nan nan nan nan nan nan nan nan nan nan nan nan nan nan 21 18 14 16 13 13 14 17 nan nan 12 13 13 14 11 9 6 10 9 19 19 10 10 10 10 8 7 6 6 6 8 6 6 nan 2 2 5
nan nan nan nan nan nan nan nan nan nan nan nan nan nan nan nan nan nan nan nan nan nan nan nan nan nan nan nan nan nan nan nan nan nan nan nan nan nan nan nan nan nan nan nan nan nan nan nan nan nan nan nan nan 15 14 15 11 16 22 21 12 10 12 13 10 9 12 8 10 8 20 nan 7 4 6 7 7 5 4 4 5 6 7 8 nan nan 3 3
nan nan nan nan nan nan nan nan nan nan nan nan nan nan nan nan nan nan nan nan nan nan nan nan nan nan nan nan nan nan nan nan nan nan nan nan nan nan nan nan nan nan nan nan nan nan nan nan nan nan nan nan nan nan nan 17 15 nan 22 24 nan 17 15 17 7 8 7 2 5 4 11 nan 2 0 4 6 4 3 3 2 3 5 5 7 10 nan nan 3
nan nan nan nan nan nan nan nan nan nan nan nan nan nan nan nan nan nan nan nan nan nan nan nan nan nan nan nan nan nan nan nan nan nan nan nan nan nan nan nan nan nan nan nan nan nan nan nan nan nan nan nan nan nan nan nan nan 25 nan nan nan nan 16 15 7 3 5 7 10 4 8 nan 8 3 4 6 4 4 5 4 4 4 4 5 9 9 nan nan
nan nan nan nan nan nan nan nan nan nan nan nan nan nan nan nan nan nan nan nan nan nan nan nan nan nan nan nan nan nan nan nan nan nan nan nan nan nan nan nan nan nan nan nan nan nan nan nan nan nan nan nan nan nan nan nan nan 23 nan nan nan nan 16 14 10 8 14 8 10 6 nan 9 8 6 4 5 4 5 4 4 5 4 2 2 5 6 7 nan
nan nan nan nan nan nan nan nan nan nan nan nan nan nan nan nan nan nan nan nan nan nan nan nan nan nan nan nan nan nan nan nan nan nan nan nan nan nan nan nan nan nan nan nan nan nan nan nan nan nan nan nan nan nan nan nan nan nan nan nan 29 25 21 16 13 13 13 8 7 4 2 5 5 6 5 5 0 2 2 3 2 4 3 3 3 4 4 6
nan nan nan nan nan nan nan nan nan nan nan nan nan nan nan nan nan nan nan nan nan nan nan nan nan nan nan nan nan nan nan nan nan nan nan nan nan nan nan nan nan nan nan nan nan nan nan nan nan nan nan nan nan nan nan nan nan nan nan nan 20 24 21 19 16 15 12 9 7 4 3 6 nan 3 3 4 4 4 2 2 3 4 5 5 5 5 nan nan
nan nan nan nan nan nan nan nan nan nan nan nan nan nan nan nan nan nan nan nan nan nan nan nan nan nan nan nan nan nan nan nan nan nan nan nan nan nan nan nan nan nan nan nan nan nan nan nan nan nan nan nan nan nan nan nan nan nan nan nan 21 20 22 20 19 18 15 10 8 9 4 6 8 6 5 3 1 1 3 2 2 3 6 7 7 6 7 nan
nan nan nan nan nan nan nan nan nan nan nan nan nan nan nan nan nan nan nan nan nan nan nan nan nan nan nan nan nan nan nan nan nan nan nan nan nan nan nan nan nan nan nan nan nan nan nan nan nan nan nan nan nan nan nan 36 31 nan nan 30 28 19 19 17 15 15 14 12 18 12 5 6 8 nan 10 3 7 6 6 4 5 6 3 3 6 7 7 7
nan nan nan nan nan nan nan nan nan nan nan nan nan nan nan nan nan nan nan nan nan nan nan nan nan nan nan nan nan nan nan nan nan nan nan nan nan nan nan nan nan nan nan nan nan nan nan nan nan nan nan nan nan nan nan nan 30 32 nan 25 23 24 17 15 14 12 12 17 15 12 9 9 7 11 11 6 8 6 6 6 3 5 8 7 6 8 9 10
nan nan nan nan nan nan nan nan nan nan nan nan nan nan nan nan nan nan nan nan nan nan nan nan nan nan nan nan nan nan nan nan nan nan nan nan nan nan nan nan nan nan nan nan nan nan nan nan nan nan nan nan nan nan nan 31 29 nan nan nan 24 nan 20 16 14 16 15 15 11 12 11 10 14 11 13 12 12 11 11 8 4 6 11 13 10 11 11 10
nan nan nan nan nan nan nan nan nan nan nan nan nan nan nan nan nan nan nan nan nan nan nan nan nan nan nan nan nan nan nan nan nan nan nan nan nan nan nan nan nan nan nan nan nan nan nan nan nan nan nan nan nan nan nan nan 30 29 32 nan nan nan nan nan nan 19 nan 13 15 15 10 12 5 13 10 12 11 11 11 10 8 7 12 16 13 13 11 10
nan nan nan nan nan nan nan nan nan nan nan nan nan nan nan nan nan nan nan nan nan nan nan nan nan nan nan nan nan nan nan nan nan nan nan nan nan nan nan nan nan nan nan nan nan nan nan nan nan nan nan nan nan nan nan nan nan nan 29 nan nan nan nan nan nan nan 23 17 13 11 13 17 13 7 9 8 8 10 10 10 10 10 14 12 11 14 11 9
nan nan nan nan nan nan nan nan nan nan nan nan nan nan nan nan nan nan nan nan nan nan nan nan nan nan nan nan nan nan nan nan nan nan nan nan nan nan nan nan nan nan nan nan nan nan nan nan nan nan nan nan nan nan nan nan 28 35 30 23 nan nan nan 24 20 26 18 nan 15 10 10 13 13 7 7 10 7 11 11 10 11 9 10 7 5 16 12 9
nan nan nan nan nan nan nan nan nan nan nan nan nan nan nan nan nan nan nan nan nan nan nan nan nan nan nan nan nan nan nan nan nan nan nan nan nan nan nan nan nan nan nan nan nan nan nan nan nan nan nan nan nan 22 nan nan nan 35 25 24 31 nan nan nan 25 nan 18 nan 14 10 9 16 9 12 11 11 11 12 13 13 11 12 7 6 2 8 10 10
nan nan nan nan nan nan nan nan nan nan nan nan nan nan nan nan nan nan nan nan nan nan nan nan nan nan nan nan nan nan nan nan nan nan nan nan nan nan nan nan nan nan nan nan nan nan nan nan nan nan nan nan nan 19 23 30 30 27 nan 31 nan nan nan nan 24 21 nan nan 12 12 12 11 13 17 12 14 15 15 14 14 12 13 11 8 6 4 6 8
nan nan nan nan nan nan nan nan nan nan nan nan nan nan nan nan nan nan nan nan nan nan nan nan nan nan nan nan nan nan nan nan nan nan nan nan nan nan nan nan nan nan nan nan nan nan nan nan nan nan nan nan nan 16 19 25 25 29 34 26 nan nan nan 26 25 26 21 23 20 11 nan 17 21 22 21 19 17 16 15 14 13 13 13 11 10 9 10 11
nan nan nan nan nan nan nan nan nan nan nan nan nan nan nan nan nan nan nan nan nan nan nan nan nan nan nan nan nan nan nan nan nan nan nan nan nan nan nan nan nan nan nan nan nan nan nan nan 9 nan 22 nan 14 17 21 19 25 24 25 28 27 nan nan nan 23 20 nan nan nan nan nan 22 21 20 22 19 18 17 16 14 14 15 14 14 15 11 14 16
nan nan nan nan nan nan nan nan nan nan nan nan nan nan nan nan nan nan nan nan nan nan nan nan nan nan nan nan nan nan nan nan nan nan nan nan nan nan nan nan nan nan nan nan nan nan nan nan nan nan nan 15 20 16 22 18 18 17 23 28 28 nan nan nan nan nan nan nan nan nan 16 20 19 16 20 18 18 18 17 14 14 16 18 18 17 15 16 15
nan nan nan nan nan nan nan nan nan nan nan nan nan nan nan nan nan nan nan nan nan nan nan nan nan nan nan nan nan nan nan nan nan nan nan nan nan nan nan nan nan nan nan nan nan nan nan 16 nan 12 8 nan nan nan 12 14 14 18 19 23 27 25 nan nan nan 20 nan nan nan nan nan 17 19 18 17 18 19 19 18 16 16 18 20 20 19 17 16 16
nan nan nan nan nan nan nan nan nan nan nan nan nan nan nan nan nan nan nan nan nan nan nan nan nan nan nan nan nan nan nan nan nan nan nan nan nan nan nan nan nan nan nan nan nan nan 13 13 nan nan 20 nan 19 19 16 15 16 nan 26 34 25 19 nan nan nan nan nan nan nan nan nan 19 19 18 16 19 21 19 18 18 17 20 19 19 19 19 17 18
nan nan nan nan nan nan nan nan nan nan nan nan nan nan nan nan nan nan nan nan nan nan nan nan nan nan nan nan nan nan nan nan nan nan nan nan nan nan nan nan nan nan nan nan nan 20 nan 16 nan 19 22 nan 16 18 20 22 18 19 22 26 23 22 16 20 nan nan nan nan nan nan nan 17 16 16 16 18 21 22 21 21 19 21 21 19 18 18 17 17
nan nan nan nan nan nan nan nan nan nan nan nan nan nan nan nan nan nan nan nan nan nan nan nan nan nan nan nan nan nan nan nan nan nan nan nan nan nan nan nan nan nan nan 20 16 nan nan 20 20 14 15 11 12 19 20 20 23 25 23 23 24 21 18 18 nan nan nan 17 nan nan 22 21 17 16 19 21 23 25 24 23 23 24 24 22 19 19 19 18
nan nan nan nan nan nan nan nan nan nan nan nan nan nan nan nan nan nan nan nan nan nan nan nan nan nan nan nan nan nan nan nan nan nan nan nan nan nan nan nan 15 19 23 22 16 14 16 19 19 20 nan 15 12 22 21 24 24 16 22 22 25 25 22 19 22 nan nan 21 17 27 30 20 19 18 17 22 24 26 28 27 24 22 22 22 21 20 20 20
nan nan nan nan nan nan nan nan nan nan nan nan nan nan nan nan nan nan nan nan nan nan nan nan nan nan nan nan nan nan nan nan nan nan nan nan nan nan nan nan 20 22 19 18 19 16 16 15 22 23 19 25 14 9 15 18 23 22 19 25 26 27 25 20 19 21 29 nan nan 31 28 27 26 22 19 23 24 27 31 28 25 22 20 20 21 23 23 22
nan nan nan nan nan nan nan nan nan nan nan nan nan nan nan nan nan nan nan nan nan nan nan nan nan nan nan nan nan nan nan nan nan nan nan nan nan nan nan nan nan 21 15 nan nan 16 17 17 23 24 27 21 15 15 18 22 25 25 28 29 31 29 29 26 29 29 23 19 nan 27 25 30 28 24 22 26 26 28 31 31 29 26 23 21 22 23 24 24
nan nan nan nan nan nan nan nan nan nan nan nan nan nan nan nan nan nan nan nan nan nan nan nan nan nan nan nan nan nan nan nan nan nan nan nan nan nan nan nan nan nan nan nan nan 20 16 21 22 26 21 22 21 21 20 23 25 28 28 31 31 32 32 31 31 31 27 28 31 30 30 33 32 29 25 25 24 26 29 30 31 31 29 27 25 26 26 26
nan nan nan nan nan nan nan nan nan nan nan nan nan nan nan nan nan nan nan nan nan nan nan nan nan nan nan nan nan nan nan nan nan nan nan nan nan nan nan nan nan nan nan nan nan 20 15 22 18 19 20 23 21 22 22 23 25 29 30 30 30 30 31 32 31 32 31 33 33 33 32 31 31 30 26 24 26 27 27 30 32 32 30 30 29 30 30 30
nan nan nan nan nan nan nan nan nan nan nan nan nan nan nan nan nan nan nan nan nan nan nan nan nan nan nan nan nan nan nan nan nan nan nan nan nan nan nan nan nan nan nan nan nan nan nan 19 16 16 15 20 21 23 26 25 23 29 31 31 30 28 30 32 30 29 26 27 27 29 28 27 29 29 28 28 27 27 27 26 28 29 29 29 30 30 30 30
nan nan nan nan nan nan nan nan nan nan nan nan nan nan nan nan nan nan nan nan nan nan nan nan nan nan nan nan nan nan nan nan nan nan nan nan nan nan nan nan nan nan nan nan nan nan nan 16 14 14 nan 14 20 18 24 25 25 25 26 33 32 33 32 32 32 28 30 27 25 22 30 31 30 26 30 34 33 32 29 25 24 27 27 28 29 29 29 29
Wind_Direction
nan nan nan nan nan nan nan nan nan nan nan nan nan nan nan nan nan nan nan nan nan nan nan nan nan nan nan nan nan nan nan nan nan nan nan nan nan nan nan nan nan nan 299 nan nan nan 321 324 338 324 33 62 85 86 130 85 85 70 53 60 43 22 31 6 35 98 288 329 291 301 320 270 279 265 217 186 237 254 303 288 256 216 235 263 268 287 310 28
nan nan nan nan nan nan nan nan nan nan nan nan nan nan nan nan nan nan nan nan nan nan nan nan nan nan nan nan nan nan nan nan nan nan nan nan nan nan nan nan nan 288 317 nan nan nan 311 325 322 349 nan 40 nan 115 101 79 80 87 69 60 54 20 351 32 92 177 355 328 294 291 303 271 277 305 309 154 321 329 322 313 305 294 284 276 284 293 331 39
nan nan nan nan nan nan nan nan nan nan nan nan nan nan nan nan nan nan nan nan nan nan nan nan nan nan nan nan nan nan nan nan nan nan nan nan nan nan nan nan nan 291 nan nan nan nan 285 292 304 358 357 125 67 152 105 121 89 20 76 55 27 329 345 342 40 313 163 304 318 279 294 266 275 289 320 137 314 357 340 330 322 329 324 308 303 316 13 52
nan nan nan nan nan nan nan nan nan nan nan nan nan nan nan nan nan nan nan nan nan nan nan nan nan nan nan nan nan nan nan nan nan nan nan 222 nan nan nan nan nan 274 nan nan nan nan 222 261 291 52 276 98 274 98 100 184 89 140 74 120 340 10 3 332 316 266 263 317 311 272 270 279 331 191 162 217 301 348 9 343 343 348 335 322 325 331 42 67
nan nan nan nan nan nan nan nan nan nan nan nan nan nan nan nan nan nan nan nan nan nan nan nan nan nan nan nan nan nan nan nan nan nan nan nan nan nan 238 nan nan nan nan nan nan nan nan 275 289 214 143 250 nan 109 nan 193 161 92 207 236 307 360 10 320 302 303 304 303 307 288 302 287 235 152 175 148 nan nan 50 342 338 350 339 328 331 339 55 72
nan nan nan nan nan nan nan nan nan nan nan nan nan nan nan nan nan nan nan nan nan nan nan nan nan nan nan nan nan nan nan nan nan nan 230 nan nan nan nan nan nan nan nan nan nan nan nan nan nan 277 277 200 253 nan 248 182 353 61 308 311 290 282 348 332 306 272 310 300 307 319 217 250 240 202 165 191 189 182 165 318 322 340 344 327 320 350 41 71
nan nan nan nan nan nan nan nan nan nan nan nan nan nan nan nan nan nan nan nan nan nan nan nan nan nan nan nan nan nan nan nan nan 235 nan nan nan nan nan 242 nan nan nan nan nan nan nan nan nan 240 nan nan nan nan nan nan 13 104 248 280 296 320 336 331 301 258 290 296 302 268 224 248 253 240 187 186 194 207 220 302 310 330 345 336 331 6 34 70
nan nan nan nan nan nan nan nan nan nan nan nan nan nan nan nan nan nan nan nan nan nan nan nan nan nan nan nan nan nan nan nan nan 241 nan nan nan nan nan nan nan nan nan nan nan nan nan nan nan nan nan nan nan nan 243 217 297 294 306 289 306 329 332 327 296 256 257 267 260 244 219 233 229 214 216 204 208 224 275 295 320 335 349 1 346 352 27 69
nan nan nan nan nan nan nan nan nan nan nan nan nan nan nan nan nan nan nan nan nan nan nan nan nan nan nan nan nan nan nan nan nan nan nan nan nan nan nan nan nan nan nan nan nan nan nan nan nan nan nan nan nan nan 255 210 269 230 257 283 314 349 336 330 298 267 260 250 252 244 219 225 216 236 212 212 214 212 267 305 328 340 356 13 21 353 52 92
nan nan nan nan nan nan nan nan nan nan nan nan nan nan nan nan nan nan nan nan nan nan nan nan nan nan nan nan nan nan nan nan nan nan nan nan nan nan nan nan nan nan nan nan nan nan nan nan nan nan nan nan nan 234 232 237 247 247 254 258 283 296 339 323 299 258 229 240 233 220 216 229 220 184 212 207 220 229 265 313 332 344 356 17 36 82 130 110
nan nan nan nan nan nan nan nan nan nan nan nan nan nan nan nan nan nan nan nan nan nan nan nan nan nan nan nan nan nan nan nan nan nan nan nan nan nan nan nan nan nan nan nan nan nan nan nan nan nan nan nan 231 255 240 244 239 254 272 277 268 281 304 308 304 281 224 232 200 203 212 225 221 184 nan 242 233 225 257 324 341 344 356 16 22 108 143 144
nan nan nan nan nan nan nan nan nan nan nan nan nan nan nan nan nan nan nan nan nan nan nan nan nan nan nan nan nan nan nan nan nan nan nan nan nan nan nan nan nan nan nan nan nan nan nan nan nan nan nan nan nan 248 257 258 259 270 281 271 276 281 287 319 321 313 232 230 196 201 210 231 212 203 223 248 235 234 218 311 348 345 348 12 26 128 134 146
nan nan nan nan nan nan nan nan nan nan nan nan nan nan nan nan nan nan nan nan nan nan nan nan nan nan nan nan nan nan nan nan nan nan nan nan nan nan nan nan nan nan nan nan nan nan nan nan nan nan nan nan 226 233 248 260 258 268 280 270 287 288 268 298 305 334 312 228 190 159 190 236 222 221 223 242 235 232 225 236 351 352 350 2 36 111 128 150
nan nan nan nan nan nan nan nan nan nan nan nan nan nan nan nan nan nan nan nan nan nan nan nan nan nan nan nan nan nan nan nan nan nan nan nan nan nan nan nan nan nan nan nan nan nan nan nan nan nan nan 215 236 256 266 255 264 257 256 243 262 286 258 300 311 324 330 289 173 179 178 217 230 227 233 229 200 248 227 239 358 9 349 351 32 74 135 154
nan nan nan nan nan nan nan nan nan nan nan nan nan nan nan nan nan nan nan nan nan nan nan nan nan nan nan nan nan nan nan nan nan nan nan nan nan nan nan nan nan nan nan nan nan nan nan nan nan nan nan 239 241 254 252 248 257 265 249 238 267 265 270 274 313 342 332 352 164 194 169 220 229 240 233 217 175 174 191 241 331 9 7 346 358 27 117 188
nan nan nan nan nan nan nan nan nan nan nan nan nan nan nan nan nan nan nan nan nan nan nan nan nan nan nan nan nan nan nan nan nan nan nan nan nan nan nan nan nan nan nan nan nan nan nan nan nan nan nan 245 245 239 240 247 255 259 262 260 255 261 284 289 299 249 275 321 241 190 192 201 219 231 232 213 180 158 170 187 233 353 4 347 337 2 124 229
nan nan nan nan nan nan nan nan nan nan nan nan nan nan nan nan nan nan nan nan nan nan nan nan nan nan nan nan nan nan nan nan nan nan nan nan nan nan nan nan nan nan nan nan nan nan nan nan nan nan nan 224 235 231 227 229 240 246 243 246 246 271 288 276 270 299 282 326 309 216 201 201 211 231 231 216 184 159 158 178 221 48 347 350 337 345 336 175
nan nan nan nan nan nan nan nan nan nan nan nan nan nan nan nan nan nan nan nan nan nan nan nan nan nan nan nan nan nan nan nan nan nan nan nan nan nan nan nan nan nan nan nan nan nan nan nan nan nan 244 235 238 235 nan 231 229 207 234 248 260 255 276 283 296 289 303 264 287 241 204 199 204 216 219 217 193 161 162 175 144 69 325 1 348 343 332 51
nan nan nan nan nan nan nan nan nan nan nan nan nan nan nan nan nan nan nan nan nan nan nan nan nan nan nan nan nan nan nan nan nan nan nan nan nan nan nan nan nan nan nan nan nan nan nan nan nan nan 228 240 242 226 234 228 226 227 224 229 234 249 248 276 278 283 319 292 275 253 213 201 195 204 209 207 192 156 167 178 156 157 200 47 9 335 329 3
nan nan nan nan nan nan nan nan nan nan nan nan nan nan nan nan nan nan nan nan nan nan nan nan nan nan nan nan nan nan nan nan nan nan nan nan nan nan nan nan nan nan nan nan nan nan nan nan nan nan nan nan 230 232 220 219 222 237 247 238 240 255 256 251 274 264 280 263 238 250 223 196 182 195 204 202 185 154 155 174 163 164 178 106 nan 331 324 335
nan nan nan nan nan nan nan nan nan nan nan nan nan nan nan nan nan nan nan nan nan nan nan nan nan nan nan nan nan nan nan nan nan nan nan nan nan nan nan nan nan nan nan nan nan nan nan nan nan nan 220 221 234 234 225 229 228 224 244 246 246 256 258 260 259 274 277 253 242 241 224 188 175 180 187 200 170 147 155 166 174 184 162 147 nan 337 322 308
nan nan nan nan nan nan nan nan nan nan nan nan nan nan nan nan nan nan nan nan nan nan nan nan nan nan nan nan nan nan nan nan nan nan nan nan nan nan nan nan nan nan nan nan nan nan nan nan nan nan nan 224 229 228 222 219 222 221 232 238 239 244 250 245 274 278 253 240 233 248 211 188 173 166 167 163 167 174 172 167 183 185 166 156 nan 122 306 293
nan nan nan nan nan nan nan nan nan nan nan nan nan nan nan nan nan nan nan nan nan nan nan nan nan nan nan nan nan nan nan nan nan nan nan nan nan nan nan nan nan nan nan nan nan nan nan nan nan nan nan 221 228 222 218 211 212 219 228 nan nan 219 223 227 251 254 266 257 270 252 211 190 163 159 148 154 168 181 182 173 182 183 162 159 nan 169 251 272
nan nan nan nan nan nan nan nan nan nan nan nan nan nan nan nan nan nan nan nan nan nan nan nan nan nan nan nan nan nan nan nan nan nan nan nan nan nan nan nan nan nan nan nan nan nan nan nan nan nan nan nan nan 222 227 216 214 235 216 213 254 228 223 238 224 239 257 254 283 258 199 nan 160 165 165 155 158 176 186 181 180 189 168 154 nan nan 229 260
nan nan nan nan nan nan nan nan nan nan nan nan nan nan nan nan nan nan nan nan nan nan nan nan nan nan nan nan nan nan nan nan nan nan nan nan nan nan nan nan nan nan nan nan nan nan nan nan nan nan nan nan nan nan nan 215 200 nan 230 214 nan 208 215 249 222 252 234 248 305 310 193 nan 180 266 225 212 188 172 191 166 198 212 186 150 138 nan nan 230
nan nan nan nan nan nan nan nan nan nan nan nan nan nan nan nan nan nan nan nan nan nan nan nan nan nan nan nan nan nan nan nan nan nan nan nan nan nan nan nan nan nan nan nan nan nan nan nan nan nan nan nan nan nan nan nan nan 220 nan nan nan nan 214 242 263 207 225 209 261 308 146 nan 189 194 252 241 223 202 206 156 186 219 200 157 153 164 nan nan
nan nan nan nan nan nan nan nan nan nan nan nan nan nan nan nan nan nan nan nan nan nan nan nan nan nan nan nan nan nan nan nan nan nan nan nan nan nan nan nan nan nan nan nan nan nan nan nan nan nan nan nan nan nan nan nan nan 223 nan nan nan nan 209 220 205 192 228 230 227 175 nan 171 199 136 60 318 226 211 211 173 152 180 204 178 171 172 172 nan
nan nan nan nan nan nan nan nan nan nan nan nan nan nan nan nan nan nan nan nan nan nan nan nan nan nan nan nan nan nan nan nan nan nan nan nan nan nan nan nan nan nan nan nan nan nan nan nan nan nan nan nan nan nan nan nan nan nan nan nan 202 201 205 206 186 194 211 201 213 194 153 168 194 247 16 4 257 257 252 219 172 140 166 205 219 197 179 170
nan nan nan nan nan nan nan nan nan nan nan nan nan nan nan nan nan nan nan nan nan nan nan nan nan nan nan nan nan nan nan nan nan nan nan nan nan nan nan nan nan nan nan nan nan nan nan nan nan nan nan nan nan nan nan nan nan nan nan nan 202 202 209 204 191 192 209 193 195 254 268 166 nan 250 263 348 38 3 357 254 224 196 159 188 215 225 nan nan
nan nan nan nan nan nan nan nan nan nan nan nan nan nan nan nan nan nan nan nan nan nan nan nan nan nan nan nan nan nan nan nan nan nan nan nan nan nan nan nan nan nan nan nan nan nan nan nan nan nan nan nan nan nan nan nan nan nan nan nan 207 208 211 208 197 194 197 187 199 265 294 182 215 245 245 253 151 61 190 212 244 231 196 176 202 218 230 nan
nan nan nan nan nan nan nan nan nan nan nan nan nan nan nan nan nan nan nan nan nan nan nan nan nan nan nan nan nan nan nan nan nan nan nan nan nan nan nan nan nan nan nan nan nan nan nan nan nan nan nan nan nan nan nan 228 233 nan nan 212 201 206 209 206 199 201 189 198 232 237 227 244 200 nan 227 173 233 247 279 301 354 350 346 232 220 218 221 229
nan nan nan nan nan nan nan nan nan nan nan nan nan nan nan nan nan nan nan nan nan nan nan nan nan nan nan nan nan nan nan nan nan nan nan nan nan nan nan nan nan nan nan nan nan nan nan nan nan nan nan nan nan nan nan nan 226 229 nan 217 205 194 199 196 204 200 190 195 205 215 229 230 192 227 233 229 210 208 209 212 265 345 349 332 271 244 225 217
nan nan nan nan nan nan nan nan nan nan nan nan nan nan nan nan nan nan nan nan nan nan nan nan nan nan nan nan nan nan nan nan nan nan nan nan nan nan nan nan nan nan nan nan nan nan nan nan nan nan nan nan nan nan nan 225 228 nan nan nan 210 nan 178 183 195 194 221 215 215 212 226 185 221 233 226 216 220 215 218 211 226 318 333 322 287 244 231 223
nan nan nan nan nan nan nan nan nan nan nan nan nan nan nan nan nan nan nan nan nan nan nan nan nan nan nan nan nan nan nan nan nan nan nan nan nan nan nan nan nan nan nan nan nan nan nan nan nan nan nan nan nan nan nan nan 230 229 236 nan nan nan nan nan nan 198 nan 212 223 228 197 211 236 241 240 232 226 226 231 231 251 289 316 307 269 225 221 228
nan nan nan nan nan nan nan nan nan nan nan nan nan nan nan nan nan nan nan nan nan nan nan nan nan nan nan nan nan nan nan nan nan nan nan nan nan nan nan nan nan nan nan nan nan nan nan nan nan nan nan nan nan nan nan nan nan nan 234 nan nan nan nan nan nan nan 183 191 207 219 194 211 221 239 227 205 216 230 229 239 247 288 315 310 235 203 194 224
nan nan nan nan nan nan nan nan nan nan nan nan nan nan nan nan nan nan nan nan nan nan nan nan nan nan nan nan nan nan nan nan nan nan nan nan nan nan nan nan nan nan nan nan nan nan nan nan nan nan nan nan nan nan nan nan 224 239 233 235 nan nan nan 192 185 191 185 nan 174 209 199 233 232 229 209 206 197 231 226 234 250 268 318 341 173 164 179 214
nan nan nan nan nan nan nan nan nan nan nan nan nan nan nan nan nan nan nan nan nan nan nan nan nan nan nan nan nan nan nan nan nan nan nan nan nan nan nan nan nan nan nan nan nan nan nan nan nan nan nan nan nan 224 nan nan nan 241 230 231 239 nan nan nan 192 nan 197 nan 179 190 190 232 203 226 214 195 217 231 230 235 253 257 299 336 130 173 193 213
nan nan nan nan nan nan nan nan nan nan nan nan nan nan nan nan nan nan nan nan nan nan nan nan nan nan nan nan nan nan nan nan nan nan nan nan nan nan nan nan nan nan nan nan nan nan nan nan nan nan nan nan nan 237 236 228 225 232 nan 237 nan nan nan nan 205 200 nan nan 187 190 186 223 219 228 219 225 225 230 231 236 246 267 285 314 315 283 245 235
nan nan nan nan nan nan nan nan nan nan nan nan nan nan nan nan nan nan nan nan nan nan nan nan nan nan nan nan nan nan nan nan nan nan nan nan nan nan nan nan nan nan nan nan nan nan nan nan nan nan nan nan nan 240 238 241 238 225 231 239 nan nan nan 213 206 205 198 190 184 200 nan 225 210 229 233 235 239 239 236 241 247 257 274 289 295 301 292 281
nan nan nan nan nan nan nan nan nan nan nan nan nan nan nan nan nan nan nan nan nan nan nan nan nan nan nan nan nan nan nan nan nan nan nan nan nan nan nan nan nan nan nan nan nan nan nan nan 213 nan 218 nan 239 236 236 229 241 243 236 243 241 nan nan nan 213 202 nan nan nan nan nan 221 218 221 231 234 239 241 237 238 245 255 252 269 277 280 289 296
nan nan nan nan nan nan nan nan nan nan nan nan nan nan nan nan nan nan nan nan nan nan nan nan nan nan nan nan nan nan nan nan nan nan nan nan nan nan nan nan nan nan nan nan nan nan nan nan nan nan nan 221 214 222 210 229 254 235 229 233 239 nan nan nan nan nan nan nan nan nan 211 230 224 214 226 230 236 239 240 233 232 246 254 249 256 265 273 287
nan nan nan nan nan nan nan nan nan nan nan nan nan nan nan nan nan nan nan nan nan nan nan nan nan nan nan nan nan nan nan nan nan nan nan nan nan nan nan nan nan nan nan nan nan nan nan 219 nan 226 182 nan nan nan 226 235 259 228 232 235 232 230 nan nan nan 207 nan nan nan nan nan 227 206 215 222 230 235 238 238 231 237 245 243 249 249 256 268 271
nan nan nan nan nan nan nan nan nan nan nan nan nan nan nan nan nan nan nan nan nan nan nan nan nan nan nan nan nan nan nan nan nan nan nan nan nan nan nan nan nan nan nan nan nan nan 226 235 nan nan 213 nan 220 215 227 231 245 nan 241 235 232 231 nan nan nan nan nan nan nan nan nan 228 224 212 222 228 237 239 235 233 223 242 245 248 246 240 252 273
nan nan nan nan nan nan nan nan nan nan nan nan nan nan nan nan nan nan nan nan nan nan nan nan nan nan nan nan nan nan nan nan nan nan nan nan nan nan nan nan nan nan nan nan nan 248 nan 247 nan 244 251 nan 218 223 219 225 229 237 238 238 231 226 232 223 nan nan nan nan nan nan nan 240 227 220 230 237 242 239 237 236 223 233 239 241 241 243 247 256
nan nan nan nan nan nan nan nan nan nan nan nan nan nan nan nan nan nan nan nan nan nan nan nan nan nan nan nan nan nan nan nan nan nan nan nan nan nan nan nan nan nan nan 238 229 nan nan 233 246 243 255 244 243 230 210 226 227 225 231 232 237 232 245 245 nan nan nan 224 nan nan 236 234 239 230 233 236 235 238 234 234 238 235 234 233 235 236 240 246
nan nan nan nan nan nan nan nan nan nan nan nan nan nan nan nan nan nan nan nan nan nan nan nan nan nan nan nan nan nan nan nan nan nan nan nan nan nan nan nan 247 247 247 243 237 240 234 246 247 237 nan 246 212 219 216 218 224 216 223 224 229 231 229 232 220 nan nan 233 228 232 249 265 259 248 241 239 232 232 233 230 228 232 236 238 239 242 241 240
nan nan nan nan nan nan nan nan nan nan nan nan nan nan nan nan nan nan nan nan nan nan nan nan nan nan nan nan nan nan nan nan nan nan nan nan nan nan nan nan 254 254 255 255 251 241 249 249 248 244 247 249 271 245 234 239 241 230 231 235 231 228 233 232 236 229 231 nan nan 245 254 259 258 257 249 244 239 234 230 227 231 237 239 240 244 248 250 250
nan nan nan nan nan nan nan nan nan nan nan nan nan nan nan nan nan nan nan nan nan nan nan nan nan nan nan nan nan nan nan nan nan nan nan nan nan nan nan nan nan 260 259 nan nan 244 243 244 245 246 257 256 273 267 252 246 244 247 238 238 236 234 233 234 234 239 231 242 nan 255 251 256 258 254 246 242 238 235 230 230 231 236 241 248 251 252 252 253
nan nan nan nan nan nan nan nan nan nan nan nan nan nan nan nan nan nan nan nan nan nan nan nan nan nan nan nan nan nan nan nan nan nan nan nan nan nan nan nan nan nan nan nan nan 248 245 247 240 248 253 259 253 251 249 246 247 247 246 240 240 238 240 238 239 239 240 248 256 268 259 253 248 249 247 246 245 240 236 235 235 237 242 247 253 257 257 256
nan nan nan nan nan nan nan nan nan nan nan nan nan nan nan nan nan nan nan nan nan nan nan nan nan nan nan nan nan nan nan nan nan nan nan nan nan nan nan nan nan nan nan nan nan 255 232 249 245 246 249 248 246 246 245 243 245 245 244 244 243 240 242 241 242 240 247 251 256 265 266 259 247 246 246 245 242 243 240 240 240 241 245 250 254 257 258 257
nan nan nan nan nan nan nan nan nan nan nan nan nan nan nan nan nan nan nan nan nan nan nan nan nan nan nan nan nan nan nan nan nan nan nan nan nan nan nan nan nan nan nan nan nan nan nan 244 247 240 237 252 248 237 237 238 242 243 243 242 243 239 239 239 240 241 239 252 260 265 266 263 257 251 251 245 246 242 242 241 243 243 244 250 253 255 256 257
nan nan nan nan nan nan nan nan nan nan nan nan nan nan nan nan nan nan nan nan nan nan nan nan nan nan nan nan nan nan nan nan nan nan nan nan nan nan nan nan nan nan nan nan nan nan nan 245 245 246 nan 241 257 240 233 228 228 239 244 239 239 241 242 245 245 244 240 244 257 257 256 259 264 259 252 245 241 240 239 236 237 243 247 249 251 252 253 255